Wind_Speed
8 10 11 12 12 11 11 13 11 8 9 9 9 7 2 1 0 2 3 5 8 6 2 6 8 12 14 15 18 18 17 18 18 18 19 19 18 17 17 17 16 16 15 14 13 14 13 11 11 10 9 9 8 8 9 9 9 8 9 9 8 8 8 8 9 10 10 10 11 11 11 11 10 10 10 10 10 9 9 9 10 10 10 11 11 10
7 10 12 11 9 6 4 6 8 9 10 10 10 10 6 3 3 2 2 3 7 7 3 2 4 10 12 12 16 17 17 18 18 19 19 19 19 18 17 17 17 16 16 16 15 14 14 12 11 10 9 9 9 9 9 9 9 8 9 9 9 9 9 9 9 10 11 10 10 10 10 10 9 10 10 10 10 9 9 10 10 10 10 11 11 11
7 11 12 9 7 6 5 5 7 10 10 10 10 11 9 4 5 3 1 2 6 5 2 1 2 7 10 11 13 15 15 16 17 18 18 19 19 19 18 18 18 17 17 18 17 16 15 13 11 11 10 11 10 10 9 10 10 9 9 10 10 10 10 11 11 11 12 12 12 11 11 10 9 9 9 10 10 9 10 10 10 10 11 11 11 11
5 5 7 5 5 8 10 10 9 10 11 12 11 12 10 6 6 6 3 4 6 4 2 2 1 5 8 11 11 12 13 14 17 18 19 19 19 19 19 18 18 18 18 19 18 17 17 14 12 11 11 11 11 11 10 10 10 9 9 10 10 10 10 11 12 12 13 13 13 12 12 11 9 10 9 9 10 9 9 10 10 10 10 11 10 10
6 1 3 3 4 7 10 10 10 11 12 12 12 13 13 8 5 6 3 5 7 5 4 5 4 5 7 9 11 12 14 15 17 20 21 20 19 19 19 19 19 18 19 20 19 19 19 17 13 12 12 11 11 12 11 11 10 10 10 10 10 10 10 11 12 12 13 13 14 13 12 10 9 9 9 9 10 8 8 9 9 9 10 10 10 10
4 2 3 4 6 7 10 10 10 11 11 12 12 13 15 13 8 5 5 7 9 8 6 8 7 4 7 10 11 14 16 17 18 19 22 22 21 20 20 20 20 19 20 19 19 20 19 18 15 13 12 11 12 12 12 11 11 10 10 10 10 10 10 10 10 11 11 12 13 12 11 10 9 9 9 10 10 9 9 9 9 9 9 10 9 10
1 1 3 4 6 6 8 10 10 10 11 11 10 10 11 11 9 8 9 9 11 9 5 7 8 3 5 10 11 15 16 17 18 18 21 22 22 22 21 21 21 20 20 20 20 20 20 19 17 14 13 12 13 13 12 12 12 11 11 11 10 10 10 9 9 9 9 10 11 12 12 11 10 10 11 11 11 11 10 10 9 9 10 10 10 10
3 1 2 3 4 6 8 9 8 9 12 9 4 4 7 7 10 12 11 11 10 11 9 8 11 5 3 5 10 13 13 15 16 16 19 21 22 23 22 22 22 21 21 21 22 21 21 21 17 15 14 14 14 14 13 13 13 12 11 11 10 10 10 9 9 9 8 9 11 12 12 13 13 12 12 12 12 12 12 11 11 11 10 10 10 10
4 3 3 4 5 6 5 3 3 6 12 10 4 5 8 9 11 11 12 13 9 10 12 9 9 6 2 4 6 8 8 11 13 14 17 20 21 22 23 23 22 22 22 22 22 22 23 21 18 16 15 15 15 15 14 14 14 13 12 12 11 10 10 9 10 9 9 9 10 12 13 14 14 13 13 13 13 13 13 12 12 11 11 10 10 10
3 4 4 5 6 4 1 0 1 6 10 8 5 7 9 9 11 11 12 13 9 9 13 9 7 6 2 4 4 4 5 7 9 11 14 17 20 22 23 23 22 23 23 22 22 23 23 21 19 18 16 16 16 16 15 15 15 14 13 13 12 11 10 10 10 10 10 10 10 11 14 15 14 13 13 13 13 13 13 13 12 12 11 10 10 10
2 4 5 5 5 4 2 3 3 6 8 7 5 7 9 8 9 10 11 11 8 10 13 10 7 6 3 4 3 3 4 3 4 7 10 13 17 20 23 24 24 25 24 23 22 23 23 22 20 19 18 17 18 18 18 17 16 15 14 14 13 12 11 11 11 11 11 10 10 10 12 14 15 13 13 13 13 13 13 12 12 12 11 10 10 10
3 6 6 5 4 2 3 5 3 4 6 7 7 8 9 8 6 9 12 11 8 9 10 9 8 9 5 2 2 1 2 2 2 4 8 10 12 17 21 25 26 25 23 23 22 22 23 23 22 21 20 19 19 20 19 17 16 16 15 15 14 13 12 11 11 11 11 11 10 10 10 12 14 13 12 12 12 13 13 13 12 12 11 11 11 10
7 7 4 3 5 3 5 8 7 5 5 7 8 8 8 5 4 8 10 9 10 11 11 8 9 10 5 2 2 2 3 4 5 3 3 7 10 14 18 24 27 26 24 25 24 22 23 24 24 23 21 21 22 21 19 18 17 16 16 15 14 14 13 12 12 12 12 11 11 10 9 10 11 11 12 12 12 12 13 13 12 12 12 11 11 11
9 9 4 5 6 5 6 8 7 5 5 8 9 9 8 6 4 6 7 8 10 13 12 7 7 8 3 2 2 4 5 6 7 6 3 1 6 10 14 20 26 29 27 26 26 23 23 25 24 23 23 23 23 22 20 19 19 18 16 16 15 14 14 13 13 12 12 12 12 11 10 9 9 9 10 11 12 12 13 14 13 12 12 12 12 12
4 8 6 4 3 3 5 9 8 5 2 7 9 8 10 11 8 6 6 6 7 9 9 9 6 3 3 2 1 5 7 9 11 9 5 2 4 7 12 15 21 29 29 24 24 24 23 25 25 24 25 24 22 22 21 21 20 19 17 16 15 14 14 13 13 13 12 12 12 12 12 10 9 8 9 10 12 13 13 14 14 13 13 12 13 13
6 3 7 3 1 1 5 6 5 7 7 6 7 9 11 12 10 11 12 10 11 12 6 8 5 2 4 1 2 6 8 10 13 11 8 4 1 5 11 13 16 24 28 26 26 25 24 24 25 25 25 25 22 21 22 21 21 19 17 16 15 15 15 14 14 13 13 12 12 12 12 11 10 9 9 10 11 12 14 14 14 14 13 13 13 13
7 3 8 4 5 5 6 5 5 9 9 4 5 8 10 8 8 11 13 11 11 9 6 7 5 7 5 1 1 4 7 10 12 11 9 7 2 5 11 13 13 18 25 28 27 26 26 25 25 25 24 23 22 21 22 21 20 19 18 16 16 16 16 16 15 15 14 13 13 12 12 12 11 11 10 10 11 12 13 14 14 15 15 14 14 13
7 2 6 3 6 6 6 7 8 9 8 8 6 6 6 6 7 10 10 8 7 7 9 12 10 10 8 4 3 2 6 10 14 13 10 8 4 6 11 13 12 13 22 28 28 26 27 26 25 25 23 22 22 21 21 22 21 20 18 17 16 17 17 17 16 16 15 14 14 13 12 12 12 12 12 12 13 13 13 13 14 15 15 15 15 15
7 7 4 3 4 5 5 8 11 10 11 13 11 10 8 6 5 7 8 8 7 6 7 13 13 6 5 6 5 2 6 9 14 15 11 6 5 4 9 13 11 11 17 26 31 30 28 28 28 27 25 23 23 22 21 22 22 20 19 17 16 16 17 17 17 16 16 16 15 14 13 13 13 13 13 14 14 14 14 14 14 14 15 15 15 16
6 9 5 3 3 6 7 10 12 10 11 12 12 11 9 8 8 7 6 8 9 7 5 10 9 2 8 8 4 1 5 10 14 16 16 10 3 2 7 13 11 9 12 21 29 31 31 32 30 28 28 26 26 26 23 20 20 21 21 19 17 17 16 16 17 16 17 17 16 16 15 14 14 13 14 15 16 16 16 15 15 15 15 15 16 16
4 9 9 7 4 5 8 9 8 4 4 6 7 9 8 8 11 10 8 10 10 8 6 8 4 5 7 5 1 4 4 10 15 16 17 12 4 3 5 12 10 8 10 17 26 30 32 34 30 26 27 27 27 26 21 18 20 21 22 20 18 18 17 17 17 16 17 18 18 17 17 16 16 15 15 15 16 17 17 17 17 17 17 17 17 17
5 8 10 9 5 3 1 1 2 3 5 6 6 8 8 8 9 9 9 12 12 10 9 10 4 6 7 2 4 6 6 8 11 13 17 13 5 2 4 9 10 9 8 13 22 27 30 33 32 28 28 28 28 26 22 23 24 24 22 21 21 21 19 19 18 17 17 18 17 17 18 18 17 17 16 16 16 17 17 18 18 18 19 18 18 19
6 7 9 13 11 5 4 2 4 5 8 10 10 10 10 10 9 9 9 9 11 13 13 15 8 5 5 0 4 5 4 5 8 11 15 15 9 3 2 5 8 9 9 10 17 24 27 30 31 30 31 30 30 28 27 27 28 27 25 24 24 23 22 22 21 19 19 18 16 16 18 19 20 19 18 18 17 17 17 17 18 18 19 19 19 20
9 7 9 14 13 9 6 6 6 6 7 10 12 10 10 10 10 10 10 10 12 14 14 14 8 2 3 2 1 4 4 5 8 9 12 13 10 6 4 5 5 7 9 9 12 19 25 27 29 31 33 33 31 30 29 30 30 30 30 28 27 27 26 25 23 20 21 21 18 18 18 20 21 20 20 20 19 19 18 18 18 18 19 19 20 20
7 6 7 11 10 8 8 8 7 6 7 10 10 7 7 10 10 11 12 12 13 12 13 13 7 3 1 3 3 4 4 4 6 6 8 11 11 7 4 5 5 5 8 10 11 15 21 24 27 30 33 34 33 32 31 32 33 33 32 31 30 30 30 29 26 25 25 24 21 20 20 20 20 20 21 21 21 21 20 20 19 19 19 19 19 21
9 6 6 9 9 5 2 2 4 4 5 8 8 7 8 10 10 10 11 12 12 10 11 12 9 7 5 5 5 6 5 4 5 4 6 11 12 9 4 5 6 5 6 10 13 14 18 20 21 26 30 31 31 30 29 31 34 34 33 32 33 33 32 32 30 29 28 27 26 25 23 22 21 21 21 22 22 22 21 21 20 20 20 19 19 20
9 9 9 11 14 11 6 5 5 5 7 8 8 8 8 8 9 10 11 12 11 11 11 10 10 12 10 4 2 4 6 5 5 6 8 10 12 11 6 4 5 6 6 10 16 17 19 20 18 19 24 24 23 24 26 31 34 34 34 35 34 34 32 32 31 31 30 30 29 29 27 26 24 22 22 22 23 23 22 22 22 21 21 21 21 21
9 12 11 12 14 14 10 8 7 7 9 11 9 8 8 9 10 10 12 12 11 12 12 8 8 14 13 7 5 4 6 7 7 9 10 11 12 13 10 7 7 9 8 11 17 20 22 23 20 19 21 22 20 21 25 31 34 36 37 38 38 37 35 33 33 32 32 31 31 30 29 29 27 25 24 24 24 25 24 24 23 23 24 24 24 23
9 13 11 9 10 11 10 10 9 9 9 9 8 8 8 9 10 11 13 13 10 11 12 10 10 12 11 11 11 9 9 9 8 10 11 12 14 14 12 10 9 10 10 12 16 18 20 22 22 22 21 20 21 23 26 30 34 36 38 40 41 40 37 35 34 34 33 32 31 30 29 30 30 29 28 26 26 26 25 26 27 26 26 26 26 25
9 11 8 6 8 10 10 9 9 9 9 9 9 9 8 8 9 10 11 10 8 10 12 13 12 10 9 12 13 13 12 11 11 12 11 10 13 14 11 9 9 9 11 13 15 17 17 17 18 19 18 16 17 18 20 24 29 33 36 41 44 44 43 39 35 34 35 34 32 31 31 31 31 31 29 26 26 27 27 28 29 29 28 27 27 26
8 8 6 7 11 12 11 9 9 9 10 10 10 9 9 9 8 8 8 7 7 9 10 10 8 7 9 12 12 14 14 12 12 15 13 9 10 13 12 10 10 9 10 14 16 18 19 17 16 17 16 14 13 14 14 14 17 22 26 31 34 35 39 43 38 32 30 32 32 31 31 31 31 32 30 27 28 29 29 29 29 28 29 29 28 28
8 7 5 7 12 12 9 8 8 8 10 12 13 11 11 10 8 6 5 5 5 7 8 8 7 7 11 12 11 12 14 12 12 14 13 11 12 14 14 12 11 10 9 11 14 17 19 18 19 19 18 16 14 13 13 12 12 13 15 17 16 14 18 28 34 32 28 28 30 31 31 31 31 33 33 31 30 30 29 30 29 28 28 29 30 30
9 9 7 7 10 10 6 5 6 8 10 12 10 9 9 9 8 8 6 6 6 7 8 8 7 7 10 11 9 10 12 13 13 14 14 13 13 14 15 16 15 13 12 13 15 17 18 17 18 19 16 14 13 11 10 10 10 9 8 8 10 11 12 15 19 22 23 22 23 26 30 32 33 34 34 33 32 30 30 30 28 27 28 29 31 32
9 11 10 7 9 9 3 2 7 10 8 4 3 5 6 6 8 9 8 7 6 6 7 7 8 7 7 7 7 10 14 15 14 13 12 12 11 9 11 15 16 15 15 14 13 16 18 17 17 16 14 12 11 10 9 9 9 8 7 5 3 6 12 17 18 20 20 18 17 19 22 26 29 31 32 34 34 33 32 31 29 28 29 30 31 32
9 10 10 8 9 10 5 4 8 8 3 1 1 4 6 7 8 9 9 8 7 6 5 4 5 7 5 5 6 7 10 12 12 11 11 11 10 7 7 8 10 11 11 8 4 7 12 13 12 12 11 11 11 11 11 11 10 9 8 8 8 6 3 8 14 15 16 15 13 14 16 20 22 24 25 30 36 37 35 32 29 29 30 31 32 33
9 10 10 9 10 10 8 8 7 3 2 3 4 4 6 7 8 9 10 9 8 7 6 5 6 6 6 6 6 5 6 6 8 9 10 10 8 6 7 9 6 5 5 6 5 3 3 5 6 6 6 7 9 10 11 13 13 13 11 11 12 12 10 8 9 9 12 15 17 18 20 22 23 21 19 21 26 31 32 30 28 30 31 32 34 35
11 11 10 10 11 10 10 10 8 6 7 7 7 4 5 6 7 9 9 10 9 9 9 9 9 8 7 6 5 6 6 6 6 6 7 7 6 4 5 10 10 5 4 5 5 6 4 1 1 2 3 3 5 7 9 10 12 13 14 14 15 16 16 16 16 17 19 22 23 22 21 21 20 17 14 13 14 17 20 23 27 31 32 33 35 36
13 12 11 10 10 10 10 11 10 8 6 5 6 4 5 6 7 7 8 9 9 7 6 9 12 12 11 9 8 8 8 8 8 8 6 5 5 4 4 8 13 11 7 6 5 5 5 4 3 2 2 2 3 5 7 8 9 9 11 12 13 14 14 15 16 17 19 19 19 17 15 15 15 14 12 11 10 10 12 15 20 26 29 31 33 35
14 13 13 13 12 11 11 10 10 8 3 4 4 4 5 6 6 7 7 7 7 6 6 9 11 11 10 10 11 12 9 7 8 8 6 5 5 4 5 6 12 12 8 7 6 4 4 4 3 3 3 3 3 3 4 6 7 8 9 9 9 9 8 8 9 10 11 12 12 11 10 10 11 12 11 9 7 7 8 8 11 15 19 21 26 34
16 15 15 16 16 14 12 12 12 7 2 4 4 3 4 5 6 8 8 5 5 5 5 6 6 6 7 8 10 11 8 7 7 4 3 3 4 3 4 7 10 10 7 7 6 5 5 4 3 2 3 3 4 4 4 4 4 5 7 7 6 5 5 5 6 7 7 8 8 7 7 6 6 7 9 10 10 10 9 8 9 11 12 14 20 26
15 16 17 18 18 16 14 13 12 5 4 3 3 4 5 5 7 8 7 5 4 4 5 6 6 5 6 8 9 8 5 5 5 3 2 2 2 3 3 6 9 8 5 4 4 2 2 3 2 3 2 3 4 5 5 5 4 4 4 5 5 4 4 4 5 6 6 7 7 6 5 4 3 3 4 7 8 8 8 8 9 9 10 12 15 15
14 15 17 17 18 16 14 13 11 6 6 5 4 5 7 7 7 7 5 6 6 4 4 8 7 6 8 9 8 5 3 3 4 3 3 3 2 4 4 4 6 6 5 4 3 2 1 0 1 2 2 2 3 3 4 5 5 5 4 4 5 5 5 5 5 5 6 6 6 5 4 4 4 3 3 4 5 5 5 6 5 6 7 8 9 12
13 14 16 16 16 15 13 12 10 6 6 6 5 5 7 7 7 6 6 8 7 4 5 9 8 6 8 8 6 3 2 3 3 2 3 3 3 3 3 3 4 4 4 4 3 2 2 1 1 1 1 1 1 2 2 3 4 4 4 4 4 5 5 6 6 6 6 6 6 6 6 7 7 6 5 5 6 6 7 7 7 7 8 8 8 7
14 14 14 12 12 14 12 8 5 2 3 5 4 3 5 7 7 6 5 7 6 5 5 7 8 7 5 4 5 5 3 3 3 3 5 5 3 2 2 4 5 5 4 4 3 3 2 1 1 0 0 0 0 1 1 2 3 3 4 4 4 4 4 5 6 6 6 7 7 7 8 9 9 9 9 9 8 9 9 9 9 9 9 9 9 8
12 13 13 9 7 9 9 5 3 3 4 5 6 7 7 7 6 5 4 5 6 6 6 6 7 7 5 5 6 5 4 4 4 4 5 6 4 4 4 5 6 5 5 4 4 3 3 2 1 1 1 0 0 0 1 1 2 2 3 3 3 3 3 4 4 5 5 6 6 7 7 7 8 8 9 10 10 11 11 11 11 12 11 11 10 9
10 12 15 13 7 7 10 11 8 6 5 7 10 10 9 7 6 6 6 7 7 7 7 6 6 6 6 6 5 4 5 5 4 4 6 6 5 4 5 6 6 5 4 4 4 4 4 3 2 2 1 1 1 1 0 1 1 2 2 3 3 3 3 3 4 4 4 5 5 6 6 6 6 6 7 8 9 10 11 11 11 12 12 12 12 12
11 12 13 13 10 8 8 9 9 8 8 9 10 11 9 8 8 8 8 9 9 8 7 7 7 6 6 5 5 4 5 5 4 4 5 5 4 5 6 7 7 6 5 5 4 4 4 4 3 2 2 1 1 1 1 1 1 1 2 2 3 3 3 4 3 4 4 4 5 5 6 6 6 6 6 6 7 8 9 9 9 9 10 10 12 13
12 14 13 11 11 11 8 5 6 8 9 8 8 8 8 9 10 9 10 10 10 9 8 7 6 6 5 4 4 5 6 5 5 4 5 5 5 6 7 7 7 6 6 5 5 4 4 4 3 3 2 1 1 1 1 1 1 1 1 2 3 3 4 4 4 4 4 5 5 5 6 6 6 6 6 6 6 7 7 7 7 7 7 8 8 10
10 13 13 12 12 12 11 10 10 10 9 9 10 9 9 10 10 10 10 10 9 8 8 7 6 6 6 5 5 6 6 6 6 5 5 6 6 7 7 7 7 6 5 5 4 3 3 3 3 3 3 2 2 1 1 0 0 0 1 1 2 2 3 3 4 4 5 5 5 5 6 6 6 7 7 7 7 8 8 8 8 7 7 7 7 7
12 13 12 12 14 13 13 14 14 10 8 9 11 10 10 10 9 9 9 9 8 8 7 6 6 6 6 6 6 7 8 7 7 7 7 7 8 8 7 7 6 5 4 4 3 2 2 3 3 3 3 3 3 3 3 2 2 2 2 3 3 3 3 4 4 5 5 5 6 6 6 7 7 7 8 8 8 8 8 9 9 9 9 9 8 8
14 14 13 13 14 12 10 12 12 9 7 9 11 11 11 10 9 8 9 8 8 8 7 6 6 6 7 7 7 7 8 8 8 8 8 8 8 8 8 7 6 5 5 4 3 3 4 4 3 3 4 4 5 5 5 4 4 4 4 4 5 5 6 6 6 6 7 7 7 8 8 9 9 9 9 9 10 10 9 9 9 9 10 10 10 10
Wind_Direction
211 220 221 228 234 235 228 225 237 268 277 271 278 269 254 345 237 80 42 44 35 18 83 133 157 169 168 171 177 178 178 177 176 180 180 178 180 182 182 185 191 185 179 191 192 188 193 187 189 196 194 198 196 188 183 171 165 157 149 147 146 154 161 164 165 159 155 152 148 148 147 148 151 154 155 156 160 165 168 167 164 161 159 161 161 161
222 229 229 232 234 249 240 215 239 264 268 269 273 268 255 215 187 134 60 34 24 26 57 84 171 177 174 181 183 183 186 186 185 186 185 183 182 183 184 185 189 188 180 186 194 191 193 194 192 196 196 200 200 192 187 176 169 163 154 151 150 158 165 166 167 165 161 159 156 152 151 151 154 158 158 161 168 168 170 170 166 163 161 161 160 161
221 230 236 237 226 240 251 245 259 261 267 267 261 270 268 191 172 210 220 300 347 10 52 26 244 193 183 189 192 190 188 189 194 194 192 190 189 185 185 188 188 188 186 185 191 190 192 198 196 198 200 200 202 197 192 182 174 171 163 158 158 161 167 169 169 169 168 168 166 162 161 159 160 166 167 170 174 173 173 172 168 164 163 162 162 164
229 222 218 220 219 236 245 250 261 257 258 261 257 264 257 188 190 244 254 278 309 328 325 341 267 196 185 185 193 197 190 191 196 196 199 200 198 193 186 189 190 189 189 187 189 187 189 199 201 201 204 203 203 200 197 192 182 179 174 167 165 165 170 173 174 174 173 175 174 172 171 168 166 171 177 177 178 179 176 173 172 170 168 167 168 171
278 339 165 210 236 241 243 241 245 251 253 251 251 260 259 235 233 269 281 280 285 276 288 298 242 196 200 192 191 202 195 195 198 194 198 201 204 205 193 191 192 192 195 191 188 188 188 198 202 200 204 205 206 204 202 199 191 187 183 178 174 171 171 175 179 180 180 180 179 178 176 174 173 176 181 179 179 185 181 176 179 177 175 175 175 177
265 215 218 254 254 241 243 242 238 247 256 252 244 245 257 263 265 279 286 280 274 256 257 274 257 217 232 220 201 208 205 201 203 196 198 201 204 207 199 197 194 193 200 196 190 190 190 197 202 200 201 204 207 207 205 203 198 195 192 188 184 179 176 174 178 184 186 187 185 181 180 180 180 181 184 181 180 186 186 181 182 182 181 180 179 182
153 86 249 250 247 234 237 245 239 238 250 258 252 233 243 260 258 263 276 275 272 271 265 261 268 263 221 224 212 213 211 203 204 202 203 205 209 211 203 198 198 197 199 196 193 191 191 198 204 200 197 201 208 207 206 206 200 199 200 196 190 187 183 174 171 179 182 185 187 184 183 184 183 186 187 183 182 186 188 185 184 186 185 183 183 183
186 317 251 219 233 232 234 241 229 225 239 252 271 243 247 259 251 254 268 265 265 283 285 259 263 265 184 213 212 207 209 203 202 206 207 207 212 216 208 199 198 198 198 197 195 190 190 199 206 204 196 196 205 208 207 208 203 199 202 200 196 193 187 178 170 170 174 177 182 183 183 184 185 187 187 187 187 187 188 188 187 189 187 186 185 183
197 247 230 214 226 228 230 232 193 213 241 263 306 269 260 260 252 254 261 263 266 283 284 263 253 254 154 161 190 198 218 213 204 207 210 210 211 213 212 206 200 196 198 199 197 194 192 197 204 205 199 193 199 206 207 208 206 201 202 202 199 196 189 183 174 168 172 174 176 181 181 185 189 188 187 189 191 189 189 192 191 190 188 185 185 182
185 217 200 213 243 268 279 214 255 241 252 286 306 260 261 258 249 249 254 265 273 272 274 264 251 263 221 175 179 180 215 214 208 214 217 214 211 212 215 211 203 198 199 198 196 198 195 195 201 202 200 194 192 202 207 209 209 204 203 204 199 198 192 187 184 176 177 177 176 182 182 186 191 190 189 192 195 193 192 194 194 191 188 185 184 182
163 216 200 216 262 309 302 232 251 254 261 293 285 245 246 239 237 246 250 262 269 260 264 262 259 276 253 190 175 173 189 198 213 224 224 218 213 214 214 211 206 201 200 197 195 200 199 195 197 197 199 196 190 199 207 208 210 205 205 207 201 199 194 190 191 185 184 185 182 186 187 189 193 194 195 196 198 198 195 196 196 194 191 186 182 179
198 203 192 213 249 274 247 229 222 255 261 264 255 240 233 220 229 252 244 239 247 255 258 255 264 278 268 187 147 181 223 254 267 221 204 207 214 215 212 211 210 204 199 198 196 198 201 197 194 194 198 198 194 202 206 205 211 209 206 210 206 201 197 194 196 193 192 192 189 192 192 193 196 198 200 200 201 201 198 199 198 195 195 189 182 179
188 190 181 208 222 229 241 223 205 212 235 242 241 237 236 220 217 246 241 228 239 250 246 245 261 269 270 241 249 321 302 291 311 313 178 186 205 211 213 215 214 205 198 199 196 193 200 201 196 193 195 200 203 205 203 202 212 214 208 209 208 203 200 196 197 199 199 198 198 200 199 197 198 199 203 204 204 203 201 202 201 198 199 196 190 186
184 184 199 215 199 199 244 247 236 210 206 232 235 224 231 236 226 240 240 233 243 244 227 220 263 264 223 216 275 352 332 323 339 341 11 133 205 210 215 217 216 211 205 205 199 190 198 203 198 193 195 203 207 205 201 201 210 216 211 208 208 205 203 199 199 201 203 204 205 206 208 206 198 196 200 203 204 204 203 202 203 202 200 199 198 197
214 171 178 214 179 161 252 276 300 321 234 230 236 230 239 248 256 269 262 261 289 277 225 200 244 276 127 170 334 10 334 338 354 349 357 358 236 221 217 215 216 213 207 205 201 192 197 202 197 195 200 205 207 206 204 203 209 216 213 208 208 208 206 202 200 202 203 207 210 212 215 214 207 200 198 201 203 203 204 204 205 207 205 203 203 205
275 193 162 211 270 227 275 280 287 288 273 241 226 234 245 251 263 274 276 284 304 307 262 202 205 113 107 194 23 23 349 354 1 350 350 352 244 201 204 206 214 213 201 196 198 194 195 201 199 198 204 207 206 207 208 206 208 214 215 211 209 208 208 205 202 204 204 207 212 216 219 220 217 212 205 204 205 203 205 208 209 210 211 210 210 210
263 203 154 220 256 229 260 276 243 258 279 264 214 238 252 255 273 281 283 282 278 283 262 224 186 139 148 253 71 36 11 18 11 357 354 357 10 176 187 193 207 214 204 198 199 194 191 198 202 200 204 207 205 207 209 209 209 213 216 215 212 210 208 206 204 204 206 208 212 215 220 223 222 220 216 212 211 208 208 211 213 214 215 217 217 217
292 258 155 224 263 221 233 261 246 250 265 246 245 291 280 244 261 278 287 288 265 256 253 251 231 183 181 177 126 35 20 22 8 0 3 21 62 169 184 187 194 202 202 202 207 204 194 195 201 201 202 204 204 207 210 213 212 213 217 218 218 216 211 208 207 206 208 209 212 215 217 221 222 221 221 218 217 216 214 214 216 218 219 220 222 223
280 265 176 155 268 244 225 252 247 233 236 249 276 304 287 260 259 251 262 275 266 260 261 258 250 219 145 130 137 359 7 7 2 359 351 10 79 144 185 190 193 193 196 200 205 207 199 196 199 199 201 203 201 204 209 216 214 210 214 219 221 219 212 209 207 207 210 208 209 214 215 218 220 220 221 221 222 222 220 220 221 223 224 224 227 228
260 264 237 165 274 262 222 235 241 222 218 243 267 267 251 259 268 251 256 273 274 280 274 256 252 90 90 119 138 4 2 355 356 355 342 336 36 82 184 190 195 201 203 199 201 204 202 204 204 198 200 203 203 202 201 211 218 212 210 212 216 219 214 213 211 208 212 212 209 212 215 217 219 220 221 221 224 227 226 226 225 227 229 229 232 233
247 268 253 202 208 256 228 224 238 236 225 242 254 250 242 252 265 273 269 252 255 270 274 270 273 97 120 151 41 334 334 352 353 350 341 337 9 50 181 191 191 193 201 198 200 205 206 210 212 204 201 203 208 208 196 198 218 219 213 208 209 216 216 217 218 215 216 215 211 211 214 218 220 221 223 223 225 227 229 230 229 229 232 234 236 237
247 282 267 232 232 293 10 147 267 284 283 287 283 272 271 270 269 277 268 248 247 255 258 267 264 125 141 168 349 317 309 345 350 348 343 339 349 46 172 197 198 190 195 196 199 206 209 212 215 211 206 202 207 213 202 199 210 215 214 209 208 214 215 215 218 222 225 221 214 211 214 219 221 221 223 224 226 229 231 234 234 234 235 236 238 240
268 289 272 258 269 310 25 9 299 273 264 270 272 269 271 272 265 262 267 271 273 274 269 265 256 140 134 61 352 325 318 330 329 337 338 335 333 318 219 214 212 199 201 198 197 205 210 213 214 213 212 210 210 212 208 205 209 210 210 209 210 213 214 217 217 219 228 229 222 218 218 220 222 222 224 225 226 227 230 233 235 236 237 238 241 242
256 261 260 262 268 275 268 263 269 265 259 256 252 254 260 266 271 268 272 285 286 284 280 268 261 133 147 194 308 303 313 326 327 332 326 325 327 309 270 248 231 204 205 205 198 205 209 211 212 213 217 217 215 213 211 209 211 213 211 209 212 214 215 221 222 219 225 227 222 223 224 224 225 223 223 226 228 229 229 230 233 235 236 238 242 245
266 246 254 265 257 247 239 232 230 230 246 252 248 250 262 272 281 277 274 279 273 275 286 284 296 30 195 222 244 272 288 313 323 327 310 308 312 305 287 269 249 204 198 202 200 204 207 210 214 217 219 218 214 211 212 212 215 219 217 213 215 216 216 220 219 217 222 224 221 223 225 226 229 229 227 226 228 231 232 231 232 234 236 237 240 245
287 273 262 267 266 268 270 265 264 248 250 261 259 260 269 273 278 281 282 278 270 277 293 293 309 336 307 258 248 256 261 276 288 291 280 285 292 290 282 277 260 221 191 192 194 197 200 203 211 218 221 221 220 220 220 220 221 222 222 221 220 221 222 223 220 217 219 221 221 223 226 226 226 230 231 230 228 230 233 234 234 235 237 238 238 241
272 272 261 260 271 287 317 329 308 281 270 276 276 268 269 270 273 280 278 274 281 292 284 270 283 296 288 267 261 264 264 269 269 266 261 265 274 271 255 260 254 229 204 190 187 186 189 190 191 200 206 207 214 226 233 234 231 227 225 225 225 225 226 228 229 227 225 224 222 222 225 228 228 228 231 233 232 230 230 233 234 235 237 238 239 239
257 262 250 242 257 271 281 287 286 277 272 277 282 276 271 272 272 274 273 276 290 291 279 276 291 288 279 283 312 301 268 263 262 260 255 252 258 258 245 240 237 225 211 195 189 187 190 190 184 183 188 189 195 210 224 231 233 231 228 227 228 229 229 229 231 232 232 233 232 228 226 226 227 229 231 233 234 232 230 232 233 234 235 236 237 237
257 263 250 231 244 259 265 270 273 274 269 268 274 276 273 274 275 275 277 280 281 275 278 294 300 291 279 273 280 285 273 266 263 258 255 254 256 253 243 243 247 235 215 201 196 195 195 198 198 199 202 206 212 219 226 231 235 234 231 228 228 230 231 232 232 233 234 237 240 240 238 233 229 227 228 231 236 235 233 234 235 236 238 239 240 241
256 262 257 243 258 266 259 257 263 265 264 262 262 266 270 272 274 280 284 280 270 271 281 287 284 281 273 263 266 274 270 264 264 261 260 264 262 252 239 238 249 244 220 207 205 203 200 197 198 201 202 207 216 222 229 236 240 239 235 231 230 231 232 232 233 234 236 237 240 244 246 246 242 236 230 229 237 240 236 235 237 239 241 243 243 244
251 260 266 261 271 267 248 243 256 256 259 262 256 253 259 264 265 274 282 277 267 275 280 277 270 265 266 267 268 265 257 252 258 260 256 259 264 257 247 238 239 237 218 211 210 210 210 206 199 197 199 203 209 212 217 228 236 237 234 233 233 233 232 231 230 233 236 239 242 245 248 251 254 251 244 235 235 239 239 238 239 240 242 244 245 245
245 264 264 249 262 259 225 222 254 260 260 262 254 246 247 250 253 259 269 268 267 277 275 264 260 259 262 265 260 250 246 243 252 259 253 247 248 250 250 245 235 224 214 216 216 211 209 209 207 206 208 212 215 216 218 221 226 230 232 233 235 236 236 233 231 231 236 241 246 250 253 256 257 257 255 247 238 236 237 240 242 242 243 245 246 246
241 259 258 241 255 253 203 204 266 270 260 256 245 233 236 242 244 247 259 265 266 276 275 260 249 251 261 264 248 236 244 248 253 261 256 248 247 247 245 241 235 225 217 219 223 218 209 201 201 203 207 212 214 212 212 210 209 214 216 224 233 234 236 239 238 240 247 251 253 256 261 262 261 260 259 254 248 242 239 241 243 244 245 247 248 249
237 253 259 252 256 257 209 203 271 264 256 255 198 197 225 244 243 242 251 253 248 266 287 281 264 257 260 258 236 234 248 252 255 260 251 244 252 255 240 232 231 232 225 215 214 218 215 208 207 210 218 224 223 218 215 208 201 195 181 162 178 224 235 240 245 253 263 267 267 269 270 266 264 264 261 256 253 249 244 241 242 246 248 248 249 251
228 238 248 245 247 256 255 242 253 252 248 46 104 219 235 241 239 240 244 241 240 258 280 276 254 246 241 238 228 231 245 251 253 249 237 236 248 261 263 245 226 228 239 238 225 223 220 218 221 228 236 242 238 232 226 222 218 211 198 181 160 140 162 231 239 250 263 268 268 274 276 273 273 275 270 260 254 251 247 243 241 245 250 251 251 253
232 232 241 240 238 249 255 241 242 279 304 251 241 252 248 235 232 237 240 239 238 237 227 207 212 218 214 221 228 219 220 239 253 245 236 244 253 259 290 298 268 229 259 285 311 323 241 213 221 234 242 251 253 247 240 236 234 231 226 216 200 185 175 183 205 230 253 264 270 276 281 285 286 286 281 271 260 253 250 249 246 246 247 248 250 251
235 238 244 242 233 240 256 250 246 277 273 230 206 220 239 232 232 235 239 244 238 223 217 218 216 214 212 216 233 238 223 215 233 248 247 256 265 255 289 309 310 321 336 315 323 360 17 44 218 243 243 256 262 261 259 254 250 244 237 233 227 222 219 222 229 242 254 264 273 281 288 293 291 284 283 285 276 262 260 262 259 253 249 248 248 250
230 235 243 248 234 230 254 264 254 257 255 203 182 218 242 234 236 236 241 254 245 226 230 232 218 217 227 233 239 248 243 226 228 243 254 265 278 263 267 312 322 326 329 323 330 357 10 18 16 349 313 290 270 269 272 268 267 265 255 247 244 243 243 245 248 255 262 269 278 286 293 293 285 279 283 294 296 288 285 282 272 263 257 253 252 252
230 230 238 249 244 231 242 259 260 259 239 164 179 238 246 229 230 236 239 239 215 202 242 255 232 219 226 240 246 246 244 239 230 231 247 276 297 265 234 290 322 324 315 310 316 334 355 18 22 358 351 349 326 305 292 279 273 271 268 266 264 261 259 257 257 261 266 273 280 283 280 275 268 266 275 289 296 297 304 305 291 277 266 263 266 261
230 228 230 237 242 239 237 248 260 263 177 166 204 246 243 220 220 237 239 223 186 184 223 250 244 227 223 235 246 240 228 229 232 229 255 285 308 298 237 260 296 307 304 300 304 320 339 359 18 11 358 352 349 351 349 337 316 291 280 279 280 275 262 254 258 266 270 276 282 278 271 271 267 260 266 276 280 281 285 287 291 293 288 293 297 277
225 225 227 229 234 236 231 239 255 245 159 174 220 221 221 218 224 237 239 221 205 201 220 236 241 240 234 230 236 237 230 232 238 248 277 251 265 305 280 253 266 277 281 279 277 285 316 337 4 18 16 4 354 355 357 359 360 345 326 318 316 313 296 274 265 268 274 282 286 283 276 282 302 299 288 291 293 293 293 287 286 298 302 304 307 290
221 220 223 225 232 237 233 238 253 239 204 215 213 205 226 243 244 247 246 229 218 204 243 260 253 230 231 234 235 236 236 237 233 231 239 226 235 279 281 248 247 260 263 256 243 226 232 320 33 35 40 34 2 348 351 356 2 1 356 349 339 333 326 313 293 281 282 289 293 289 279 278 295 311 316 328 336 342 348 341 329 330 332 324 309 290
222 218 220 220 228 239 238 237 250 251 216 209 204 215 240 251 252 257 259 253 247 225 243 268 271 244 233 238 250 256 236 242 253 222 202 212 236 265 265 238 225 235 245 243 227 211 212 190 95 62 64 62 7 336 331 339 348 350 350 351 345 335 328 324 319 310 303 300 297 294 292 289 290 288 283 299 317 326 339 350 352 352 353 355 352 324
225 224 230 225 224 236 239 232 236 236 177 180 199 228 235 240 253 264 262 255 248 222 223 256 276 276 264 257 272 279 262 240 249 221 198 213 236 233 216 218 216 209 209 213 203 191 192 193 191 138 65 88 241 271 288 315 333 335 338 341 338 335 330 323 320 318 312 306 300 297 296 293 290 288 285 286 291 299 309 317 322 328 333 336 347 358
221 223 236 239 230 241 252 250 210 192 194 215 241 250 247 252 259 249 228 226 224 217 222 245 265 272 271 262 264 277 279 257 246 235 226 227 222 197 188 205 212 200 188 188 190 187 182 181 193 200 168 148 166 206 257 294 318 323 328 329 329 334 329 314 309 308 305 306 306 302 301 300 297 295 294 291 288 290 295 298 298 301 304 306 311 324
223 223 234 240 239 240 253 255 241 221 220 240 253 256 253 252 244 221 212 219 227 231 236 247 256 254 248 249 257 272 279 261 236 237 248 243 218 190 188 194 194 187 182 181 179 179 178 177 188 201 200 185 160 143 205 283 315 324 323 320 327 337 334 320 313 310 308 313 319 320 321 322 317 312 308 304 301 299 301 303 301 297 296 293 290 293
228 226 227 232 234 233 245 250 239 225 224 236 253 258 248 235 226 218 218 227 239 249 250 248 251 246 238 241 246 248 253 244 222 228 245 237 209 191 189 182 170 163 163 163 159 161 165 170 176 185 189 181 139 123 117 105 47 6 350 348 353 355 352 344 336 331 330 331 333 335 337 337 336 333 328 321 320 319 318 318 317 313 309 302 291 284
222 224 221 221 228 233 232 211 204 216 219 221 234 244 240 235 232 228 232 240 246 251 247 238 235 234 230 228 227 226 230 228 220 226 231 217 198 191 184 169 158 156 156 152 153 157 162 167 170 175 182 178 142 104 100 100 93 61 29 20 15 5 360 357 353 350 349 347 344 343 341 340 339 338 338 336 333 332 332 332 331 329 323 315 304 290
218 225 225 222 226 231 228 218 222 235 238 232 232 234 234 238 237 232 236 244 244 242 238 231 223 220 216 213 208 208 215 218 213 214 216 203 189 185 179 166 160 163 163 165 170 169 174 181 178 178 184 184 185 205 203 137 67 23 353 343 346 343 334 334 336 339 340 339 339 338 335 336 337 335 335 337 336 333 332 331 331 332 329 323 315 302
228 230 226 223 227 230 230 233 237 240 238 234 234 234 238 243 238 229 232 239 240 236 233 228 223 217 214 213 206 199 205 210 206 201 203 199 192 188 183 173 172 179 183 190 196 195 207 216 208 205 208 205 209 225 236 249 265 277 289 296 302 307 308 309 315 320 323 324 325 326 325 326 328 328 328 329 328 329 329 327 326 326 325 323 320 316
229 229 223 225 234 237 235 237 239 234 227 224 225 234 246 248 238 229 229 232 232 229 226 225 223 217 212 210 204 203 209 212 205 199 200 201 198 195 190 182 182 191 198 201 209 215 225 232 230 231 233 229 230 237 242 250 264 276 288 298 303 306 308 311 312 313 315 316 316 316 318 318 318 319 320 320 319 319 318 317 317 317 316 317 316 315
Height
3173 3172 3172 3171 3170 3170 3170 3170 3171 3171 3171 3171 3169 3168 3168 3169 3170 3169 3169 3169 3169 3169 3171 3171 3170 3171 3172 3172 3173 3174 3175 3176 3178 3179 3181 3183 3184 3186 3187 3188 3189 3189 3191 3192 3192 3193 3193 3194 3194 3195 3196 3197 3198 3199 3200 3200 3201 3202 3202 3202 3203 3203 3204 3205 3205 3206 3207 3208 3209 3209 3210 3211 3212 3213 3214 3214 3215 3216 3217 3217 3218 3219 3219 3220 3221 3222
3172 3171 3170 3170 3169 3169 3168 3169 3171 3171 3171 3170 3169 3167 3166 3167 3169 3169 3169 3169 3169 3169 3171 3171 3170 3171 3171 3172 3173 3174 3174 3175 3177 3178 3179 3181 3183 3185 3186 3187 3188 3189 3190 3191 3192 3192 3193 3193 3194 3195 3196 3197 3198 3199 3200 3200 3201 3202 3202 3203 3203 3204 3204 3205 3206 3207 3208 3209 3209 3210 3211 3212 3213 3213 3214 3215 3216 3217 3217 3218 3219 3219 3220 3221 3222 3223
3171 3170 3169 3168 3168 3169 3169 3170 3171 3171 3170 3170 3169 3167 3164 3165 3168 3169 3169 3169 3169 3169 3170 3171 3171 3170 3169 3170 3172 3173 3174 3175 3176 3177 3179 3180 3181 3183 3185 3186 3187 3188 3189 3190 3191 3192 3193 3193 3194 3195 3195 3196 3197 3198 3199 3200 3201 3202 3202 3203 3203 3204 3205 3205 3206 3207 3208 3209 3210 3211 3211 3212 3213 3214 3215 3216 3216 3217 3218 3219 3219 3220 3221 3222 3222 3223
3168 3167 3168 3168 3168 3170 3170 3171 3171 3171 3170 3169 3167 3166 3163 3163 3166 3167 3167 3169 3169 3168 3169 3169 3169 3169 3168 3169 3171 3172 3173 3175 3176 3177 3178 3179 3180 3181 3183 3185 3186 3187 3188 3189 3191 3192 3193 3193 3193 3194 3195 3196 3197 3198 3199 3200 3201 3202 3202 3203 3203 3204 3205 3206 3206 3207 3208 3209 3210 3211 3212 3212 3213 3214 3215 3216 3217 3218 3218 3219 3220 3221 3221 3222 3223 3224
3166 3166 3167 3168 3169 3170 3170 3170 3170 3170 3169 3168 3167 3166 3163 3162 3163 3165 3166 3168 3168 3167 3168 3168 3167 3167 3166 3167 3170 3171 3172 3173 3174 3175 3176 3177 3179 3180 3181 3183 3185 3186 3187 3188 3190 3191 3192 3192 3192 3194 3195 3196 3197 3198 3199 3200 3201 3201 3202 3203 3203 3204 3205 3206 3207 3207 3208 3209 3210 3211 3212 3213 3214 3215 3216 3217 3218 3218 3219 3220 3220 3221 3222 3223 3224 3225
3167 3166 3167 3169 3169 3170 3170 3169 3169 3169 3167 3166 3165 3165 3164 3163 3163 3165 3166 3167 3166 3165 3166 3166 3164 3163 3165 3166 3168 3169 3170 3171 3172 3173 3174 3175 3177 3178 3180 3181 3183 3185 3185 3187 3189 3190 3191 3192 3192 3193 3194 3195 3196 3197 3198 3199 3200 3201 3202 3203 3204 3204 3205 3206 3207 3208 3209 3209 3210 3211 3212 3213 3214 3215 3216 3217 3218 3219 3219 3220 3221 3222 3222 3223 3224 3225
3166 3166 3167 3169 3169 3169 3169 3168 3168 3168 3168 3165 3163 3164 3164 3164 3165 3166 3167 3166 3165 3164 3164 3165 3163 3162 3165 3166 3166 3168 3168 3169 3170 3171 3172 3173 3174 3175 3177 3180 3181 3183 3184 3186 3187 3189 3191 3191 3191 3192 3194 3195 3196 3197 3198 3199 3200 3201 3202 3203 3203 3204 3205 3206 3207 3208 3209 3210 3210 3212 3212 3214 3214 3215 3216 3217 3218 3218 3219 3220 3221 3222 3222 3223 3224 3225
3167 3168 3168 3168 3168 3168 3168 3166 3166 3167 3167 3164 3163 3164 3165 3166 3166 3166 3166 3165 3165 3164 3163 3164 3162 3162 3165 3166 3166 3167 3168 3168 3168 3168 3170 3171 3173 3174 3176 3178 3179 3181 3183 3184 3186 3187 3189 3190 3190 3192 3193 3194 3195 3196 3197 3198 3199 3200 3201 3202 3203 3204 3205 3206 3207 3208 3209 3209 3210 3211 3212 3213 3214 3215 3215 3216 3217 3218 3219 3220 3221 3222 3222 3223 3224 3225
3167 3168 3168 3168 3168 3167 3166 3165 3165 3167 3166 3164 3164 3166 3166 3166 3166 3166 3166 3164 3164 3164 3162 3162 3162 3161 3163 3165 3166 3168 3168 3168 3167 3167 3169 3169 3171 3173 3174 3175 3178 3180 3182 3183 3185 3186 3187 3189 3190 3191 3192 3194 3195 3196 3197 3198 3198 3199 3200 3201 3202 3204 3205 3206 3206 3207 3208 3209 3210 3211 3212 3213 3213 3214 3215 3216 3217 3218 3219 3219 3220 3221 3222 3223 3224 3225
3166 3167 3167 3167 3167 3165 3165 3165 3166 3167 3166 3164 3165 3166 3166 3166 3166 3165 3165 3163 3164 3165 3162 3161 3161 3161 3163 3164 3167 3169 3168 3167 3167 3167 3168 3168 3170 3171 3172 3173 3175 3178 3180 3181 3184 3185 3186 3188 3189 3191 3192 3193 3195 3196 3196 3197 3197 3199 3200 3201 3202 3203 3204 3205 3206 3207 3208 3209 3210 3211 3212 3212 3213 3214 3215 3216 3217 3217 3218 3219 3220 3221 3222 3223 3224 3225
3166 3166 3166 3166 3166 3165 3165 3166 3167 3166 3166 3165 3165 3165 3165 3165 3165 3165 3165 3164 3165 3163 3160 3160 3160 3161 3162 3164 3166 3168 3167 3167 3167 3167 3167 3167 3168 3169 3170 3171 3173 3176 3178 3180 3182 3184 3185 3186 3188 3190 3191 3192 3194 3195 3195 3196 3196 3198 3199 3200 3201 3202 3203 3205 3206 3207 3208 3209 3210 3210 3211 3212 3213 3214 3215 3215 3216 3217 3218 3219 3220 3221 3222 3223 3224 3225
3166 3165 3165 3166 3165 3165 3166 3166 3166 3166 3166 3166 3165 3164 3163 3162 3164 3165 3163 3164 3163 3160 3158 3159 3160 3160 3161 3163 3165 3166 3166 3166 3167 3167 3166 3166 3166 3167 3167 3169 3172 3174 3176 3178 3180 3182 3183 3185 3187 3189 3190 3191 3193 3193 3194 3195 3195 3197 3198 3199 3200 3202 3202 3204 3205 3206 3207 3208 3209 3210 3211 3212 3213 3213 3214 3215 3216 3217 3218 3219 3220 3221 3222 3223 3224 3225
3164 3164 3164 3165 3165 3165 3165 3164 3164 3164 3165 3165 3164 3163 3161 3161 3164 3164 3159 3159 3158 3155 3156 3158 3159 3159 3160 3162 3163 3165 3166 3166 3166 3165 3165 3164 3164 3165 3165 3167 3170 3172 3174 3176 3179 3181 3182 3183 3184 3186 3188 3190 3191 3192 3193 3194 3194 3195 3197 3198 3200 3201 3202 3203 3204 3205 3206 3208 3208 3209 3210 3211 3212 3213 3214 3215 3216 3217 3218 3219 3220 3221 3222 3223 3223 3224
3160 3163 3164 3163 3163 3164 3164 3163 3161 3161 3163 3163 3162 3161 3161 3159 3160 3159 3154 3152 3151 3149 3152 3156 3158 3158 3159 3161 3162 3164 3165 3165 3164 3163 3162 3162 3162 3163 3164 3165 3168 3170 3172 3174 3176 3179 3181 3181 3183 3185 3187 3188 3189 3190 3192 3193 3194 3194 3196 3198 3199 3200 3201 3202 3203 3204 3206 3207 3208 3209 3210 3211 3212 3213 3214 3215 3216 3217 3218 3219 3220 3221 3222 3223 3223 3224
3156 3159 3162 3162 3162 3163 3164 3163 3161 3160 3161 3162 3160 3160 3160 3156 3155 3153 3149 3147 3147 3146 3148 3153 3157 3158 3159 3161 3162 3163 3164 3164 3162 3160 3160 3160 3160 3161 3162 3163 3165 3167 3170 3172 3174 3177 3180 3180 3182 3183 3185 3186 3187 3189 3191 3192 3193 3193 3195 3197 3198 3199 3201 3201 3203 3204 3205 3206 3207 3208 3209 3210 3211 3212 3213 3214 3215 3216 3217 3218 3219 3220 3221 3222 3223 3224
3157 3158 3161 3163 3162 3164 3164 3163 3163 3162 3160 3160 3160 3160 3159 3155 3154 3153 3149 3147 3149 3148 3148 3151 3156 3158 3159 3161 3161 3163 3164 3163 3161 3159 3158 3159 3159 3159 3160 3162 3163 3165 3167 3169 3171 3175 3179 3180 3181 3182 3183 3185 3186 3188 3189 3191 3192 3193 3194 3196 3197 3199 3200 3201 3202 3203 3204 3205 3206 3207 3208 3209 3211 3212 3213 3214 3215 3216 3217 3218 3219 3220 3221 3222 3223 3223
3158 3157 3160 3163 3163 3164 3164 3163 3164 3163 3161 3159 3159 3158 3156 3156 3156 3155 3152 3150 3152 3152 3149 3149 3153 3156 3159 3160 3161 3162 3163 3163 3162 3159 3158 3159 3159 3159 3159 3160 3161 3163 3164 3166 3169 3173 3177 3179 3180 3181 3182 3184 3185 3186 3188 3189 3191 3192 3194 3195 3196 3197 3199 3200 3201 3202 3203 3204 3205 3206 3207 3209 3210 3211 3212 3213 3214 3215 3216 3217 3218 3219 3220 3221 3222 3223
3160 3158 3159 3162 3162 3162 3163 3163 3163 3163 3162 3160 3157 3155 3155 3156 3158 3159 3156 3153 3152 3152 3148 3146 3148 3152 3156 3158 3160 3162 3163 3163 3162 3159 3158 3159 3159 3158 3159 3160 3161 3161 3163 3166 3169 3173 3175 3177 3179 3181 3182 3183 3184 3186 3187 3188 3190 3191 3193 3194 3195 3196 3198 3199 3200 3201 3202 3203 3204 3205 3206 3208 3209 3210 3211 3212 3213 3214 3215 3216 3217 3218 3219 3220 3221 3222
3162 3159 3158 3161 3162 3161 3162 3163 3161 3161 3162 3160 3157 3157 3157 3157 3158 3160 3159 3156 3152 3149 3147 3144 3144 3148 3153 3157 3160 3162 3162 3162 3161 3160 3159 3159 3159 3159 3159 3159 3160 3161 3163 3165 3167 3170 3173 3175 3176 3178 3181 3182 3183 3184 3186 3187 3188 3190 3192 3193 3194 3196 3197 3198 3198 3199 3200 3201 3203 3204 3205 3206 3207 3209 3210 3211 3212 3213 3214 3215 3216 3217 3218 3219 3220 3221
3162 3160 3157 3159 3161 3160 3160 3161 3158 3158 3159 3160 3159 3158 3158 3159 3158 3158 3158 3157 3154 3150 3147 3144 3144 3150 3156 3158 3161 3162 3161 3161 3161 3160 3160 3159 3159 3160 3159 3159 3160 3161 3162 3163 3165 3168 3171 3173 3173 3175 3177 3179 3180 3181 3182 3184 3186 3188 3190 3192 3193 3194 3196 3196 3197 3198 3199 3200 3201 3202 3203 3205 3206 3207 3208 3209 3211 3212 3213 3214 3215 3216 3216 3217 3218 3219
3163 3161 3158 3157 3158 3158 3158 3157 3156 3156 3158 3159 3159 3158 3158 3159 3158 3156 3156 3158 3156 3153 3151 3147 3147 3155 3159 3158 3160 3162 3160 3160 3160 3160 3160 3159 3159 3160 3160 3159 3160 3161 3161 3162 3164 3166 3168 3170 3173 3174 3175 3177 3179 3179 3179 3182 3185 3186 3186 3188 3191 3193 3194 3195 3196 3197 3198 3199 3200 3201 3202 3203 3204 3205 3207 3208 3209 3210 3211 3212 3213 3214 3215 3216 3217 3218
3163 3161 3158 3156 3156 3155 3156 3156 3156 3158 3159 3160 3160 3159 3159 3159 3160 3159 3156 3155 3154 3153 3152 3150 3150 3156 3159 3158 3160 3161 3160 3160 3160 3160 3160 3159 3159 3159 3160 3159 3159 3159 3160 3160 3162 3164 3166 3168 3170 3172 3173 3175 3176 3176 3176 3179 3183 3183 3184 3186 3189 3192 3193 3194 3195 3195 3196 3198 3199 3199 3200 3202 3203 3204 3205 3206 3208 3209 3210 3211 3212 3213 3214 3215 3215 3216
3162 3162 3160 3157 3155 3155 3156 3157 3158 3158 3159 3160 3160 3160 3160 3160 3161 3161 3158 3156 3154 3153 3151 3149 3149 3153 3157 3158 3159 3160 3159 3159 3159 3160 3160 3159 3159 3159 3159 3159 3157 3156 3157 3158 3160 3161 3163 3165 3168 3170 3172 3173 3174 3175 3176 3177 3180 3182 3183 3185 3188 3190 3191 3192 3193 3193 3194 3195 3196 3197 3198 3200 3200 3201 3203 3204 3206 3207 3208 3209 3210 3211 3212 3213 3214 3215
3162 3162 3161 3158 3155 3155 3157 3158 3158 3159 3160 3160 3160 3159 3160 3160 3160 3160 3160 3159 3158 3156 3154 3150 3149 3153 3156 3157 3158 3159 3159 3158 3158 3159 3159 3159 3159 3158 3157 3157 3156 3155 3155 3157 3158 3160 3161 3163 3165 3167 3170 3172 3173 3175 3175 3177 3179 3180 3181 3183 3186 3187 3188 3189 3190 3191 3192 3194 3195 3196 3197 3198 3198 3199 3201 3203 3204 3205 3206 3207 3208 3209 3210 3211 3212 3213
3161 3161 3161 3158 3154 3153 3154 3155 3156 3158 3159 3158 3157 3158 3159 3160 3160 3159 3159 3159 3158 3157 3157 3154 3152 3155 3157 3157 3157 3158 3158 3158 3158 3158 3158 3158 3158 3157 3156 3155 3155 3154 3154 3155 3157 3159 3160 3162 3163 3165 3167 3169 3171 3172 3174 3176 3177 3179 3179 3181 3182 3183 3184 3185 3186 3187 3190 3192 3194 3195 3195 3196 3197 3198 3199 3201 3202 3203 3204 3205 3206 3207 3208 3209 3210 3211
3161 3161 3161 3159 3154 3151 3152 3155 3155 3156 3157 3157 3157 3158 3159 3160 3160 3159 3159 3159 3157 3157 3158 3157 3156 3158 3159 3158 3157 3157 3158 3157 3157 3157 3157 3157 3157 3156 3156 3155 3153 3153 3153 3155 3157 3158 3160 3161 3163 3163 3164 3166 3168 3170 3173 3174 3176 3177 3178 3179 3180 3180 3181 3183 3184 3185 3186 3188 3190 3192 3193 3194 3196 3197 3198 3199 3200 3201 3203 3203 3204 3205 3206 3207 3208 3209
3162 3161 3160 3160 3157 3154 3155 3157 3157 3157 3157 3156 3156 3157 3158 3159 3159 3159 3159 3158 3157 3157 3157 3157 3157 3159 3160 3159 3157 3157 3158 3157 3156 3156 3156 3155 3156 3156 3155 3154 3153 3154 3155 3156 3157 3158 3159 3161 3162 3162 3162 3163 3166 3169 3172 3173 3175 3176 3177 3178 3178 3179 3181 3183 3184 3185 3186 3186 3187 3188 3190 3191 3193 3196 3197 3197 3198 3199 3200 3201 3202 3203 3204 3204 3205 3206
3161 3159 3158 3159 3158 3157 3157 3157 3157 3157 3157 3157 3156 3157 3158 3158 3158 3158 3158 3158 3158 3157 3155 3155 3157 3157 3158 3158 3157 3157 3158 3157 3156 3155 3155 3154 3154 3154 3154 3154 3153 3155 3156 3157 3157 3158 3159 3160 3161 3162 3162 3162 3164 3166 3168 3170 3171 3173 3175 3176 3176 3177 3179 3181 3183 3185 3186 3187 3187 3187 3187 3187 3189 3192 3195 3195 3196 3196 3198 3199 3200 3200 3201 3201 3202 3203
3160 3157 3155 3156 3157 3156 3156 3156 3156 3156 3156 3156 3157 3157 3157 3157 3157 3157 3157 3157 3158 3157 3155 3154 3155 3156 3156 3157 3157 3157 3157 3157 3156 3155 3154 3154 3153 3153 3154 3154 3154 3155 3156 3157 3158 3159 3159 3160 3161 3161 3162 3163 3163 3164 3165 3166 3167 3169 3171 3172 3173 3175 3177 3179 3181 3182 3184 3185 3187 3187 3187 3186 3185 3187 3189 3191 3193 3194 3196 3197 3197 3197 3198 3199 3200 3201
3158 3156 3155 3155 3156 3156 3155 3156 3156 3156 3155 3155 3156 3156 3156 3157 3157 3156 3156 3156 3156 3156 3155 3154 3154 3154 3155 3156 3156 3157 3157 3156 3156 3154 3154 3153 3152 3152 3153 3153 3154 3155 3156 3157 3158 3158 3159 3159 3160 3161 3162 3162 3163 3163 3164 3164 3165 3166 3167 3169 3169 3171 3173 3176 3178 3179 3181 3183 3185 3186 3187 3187 3187 3186 3185 3187 3190 3192 3193 3194 3194 3195 3195 3196 3197 3198
3157 3156 3155 3156 3156 3154 3154 3154 3155 3154 3154 3154 3154 3155 3155 3155 3155 3156 3156 3156 3155 3155 3154 3154 3153 3153 3154 3155 3156 3156 3156 3156 3155 3154 3154 3153 3152 3152 3153 3153 3153 3154 3155 3156 3157 3158 3159 3159 3160 3161 3161 3162 3162 3162 3163 3163 3163 3163 3164 3165 3165 3166 3169 3172 3174 3176 3179 3181 3182 3183 3184 3185 3187 3188 3186 3186 3187 3188 3190 3190 3191 3192 3193 3193 3194 3195
3156 3155 3155 3156 3155 3151 3151 3153 3154 3153 3154 3153 3153 3153 3154 3154 3154 3155 3155 3155 3155 3155 3154 3153 3154 3154 3154 3154 3155 3155 3155 3155 3154 3153 3153 3153 3152 3152 3153 3154 3154 3154 3154 3155 3156 3157 3157 3158 3159 3160 3160 3161 3161 3161 3161 3161 3162 3162 3162 3163 3163 3163 3166 3169 3171 3174 3176 3178 3180 3181 3182 3183 3184 3185 3186 3185 3185 3184 3185 3186 3188 3189 3190 3190 3191 3192
3156 3155 3154 3154 3152 3148 3149 3152 3153 3153 3152 3150 3149 3150 3152 3153 3153 3154 3154 3154 3154 3155 3154 3153 3154 3154 3153 3153 3154 3155 3155 3154 3154 3153 3153 3152 3152 3152 3153 3154 3155 3154 3153 3153 3155 3155 3156 3156 3158 3159 3159 3160 3160 3160 3160 3160 3160 3161 3160 3161 3161 3162 3164 3167 3170 3171 3173 3176 3177 3178 3179 3180 3181 3182 3183 3184 3183 3182 3181 3182 3184 3185 3186 3186 3187 3188
3156 3155 3154 3153 3152 3148 3148 3152 3153 3151 3148 3146 3147 3149 3151 3152 3153 3153 3153 3154 3154 3154 3152 3152 3153 3153 3152 3152 3153 3154 3153 3153 3153 3153 3153 3152 3151 3152 3153 3154 3154 3154 3153 3152 3153 3153 3153 3154 3155 3156 3157 3158 3159 3159 3159 3159 3160 3160 3160 3160 3160 3161 3163 3166 3168 3170 3171 3173 3175 3175 3175 3177 3178 3179 3179 3180 3181 3180 3179 3179 3180 3181 3182 3182 3183 3183
3154 3154 3153 3153 3152 3149 3149 3151 3151 3147 3145 3146 3148 3149 3150 3151 3152 3152 3153 3153 3154 3154 3153 3152 3152 3152 3152 3152 3152 3152 3152 3152 3152 3152 3152 3152 3151 3152 3153 3153 3153 3152 3153 3153 3154 3153 3152 3152 3153 3154 3155 3156 3157 3158 3159 3159 3160 3160 3160 3160 3160 3161 3163 3165 3167 3169 3170 3171 3172 3172 3172 3173 3174 3176 3176 3176 3176 3176 3177 3176 3176 3177 3178 3179 3179 3180
3153 3153 3152 3152 3151 3150 3149 3149 3147 3145 3145 3147 3149 3149 3149 3150 3151 3152 3152 3152 3153 3153 3154 3153 3152 3152 3152 3152 3151 3151 3152 3151 3151 3151 3152 3151 3151 3152 3153 3154 3152 3150 3151 3154 3155 3154 3152 3151 3152 3152 3153 3154 3155 3156 3158 3159 3159 3160 3160 3160 3160 3161 3162 3164 3166 3168 3168 3168 3169 3169 3170 3170 3171 3172 3172 3171 3171 3172 3173 3173 3171 3172 3174 3175 3175 3176
3151 3151 3151 3150 3149 3149 3148 3146 3145 3145 3145 3146 3147 3148 3148 3149 3150 3150 3151 3151 3151 3151 3152 3152 3152 3152 3151 3151 3151 3151 3151 3151 3150 3150 3151 3151 3152 3152 3153 3153 3151 3149 3150 3152 3154 3153 3152 3152 3152 3153 3153 3154 3154 3155 3156 3157 3158 3159 3159 3160 3160 3161 3162 3163 3164 3165 3165 3166 3166 3168 3169 3169 3169 3169 3168 3168 3168 3168 3169 3168 3167 3168 3170 3171 3171 3172
3150 3150 3150 3149 3148 3148 3147 3145 3143 3143 3143 3144 3146 3148 3148 3149 3149 3149 3150 3150 3149 3149 3149 3150 3151 3151 3150 3150 3150 3149 3149 3150 3150 3150 3150 3151 3152 3152 3152 3152 3151 3150 3151 3152 3152 3153 3152 3152 3152 3153 3153 3153 3154 3154 3155 3155 3156 3157 3158 3159 3159 3159 3160 3161 3162 3163 3164 3164 3165 3166 3167 3167 3167 3167 3167 3166 3166 3165 3165 3164 3162 3163 3164 3165 3166 3168
3148 3149 3149 3148 3147 3146 3147 3145 3142 3141 3142 3144 3147 3147 3147 3148 3148 3149 3148 3148 3148 3148 3148 3148 3148 3149 3149 3148 3148 3148 3149 3149 3149 3150 3150 3150 3151 3151 3152 3153 3152 3152 3152 3152 3152 3152 3152 3152 3152 3152 3153 3153 3153 3154 3154 3155 3155 3156 3156 3157 3158 3158 3158 3159 3160 3161 3162 3163 3164 3165 3165 3165 3166 3166 3166 3165 3164 3163 3162 3161 3160 3160 3160 3160 3161 3161
3146 3147 3147 3147 3145 3145 3145 3144 3141 3140 3142 3144 3146 3147 3146 3147 3148 3147 3147 3147 3147 3148 3148 3147 3146 3146 3148 3148 3146 3146 3148 3148 3149 3150 3150 3150 3150 3151 3152 3153 3154 3154 3154 3153 3153 3152 3151 3151 3152 3152 3152 3153 3153 3153 3154 3154 3155 3155 3155 3156 3156 3157 3157 3158 3159 3160 3161 3162 3163 3163 3163 3164 3164 3164 3164 3163 3162 3161 3160 3159 3159 3158 3157 3157 3157 3154
3144 3144 3144 3144 3143 3142 3142 3142 3140 3140 3142 3143 3145 3146 3146 3146 3146 3146 3145 3146 3147 3147 3147 3147 3147 3147 3147 3147 3146 3146 3147 3148 3148 3149 3150 3150 3150 3150 3151 3152 3154 3154 3154 3154 3153 3153 3152 3152 3152 3152 3152 3152 3153 3153 3154 3154 3154 3155 3155 3155 3155 3155 3156 3157 3157 3158 3159 3160 3161 3162 3162 3162 3162 3162 3162 3161 3161 3160 3159 3158 3157 3156 3155 3155 3156 3154
3141 3142 3141 3141 3141 3139 3139 3140 3140 3140 3141 3142 3144 3145 3145 3145 3145 3145 3145 3145 3146 3147 3146 3146 3147 3148 3147 3147 3146 3147 3148 3148 3148 3149 3149 3149 3150 3150 3150 3151 3152 3153 3153 3153 3153 3152 3152 3152 3152 3152 3152 3152 3153 3153 3154 3154 3154 3154 3154 3154 3154 3154 3155 3155 3156 3157 3157 3158 3159 3160 3160 3161 3161 3161 3161 3160 3160 3159 3158 3157 3156 3155 3154 3154 3155 3155
3138 3138 3138 3138 3139 3138 3137 3138 3139 3139 3140 3141 3143 3144 3144 3143 3144 3144 3145 3145 3145 3146 3146 3144 3145 3147 3147 3145 3145 3146 3147 3148 3148 3148 3148 3148 3149 3149 3149 3150 3150 3151 3151 3152 3152 3151 3151 3152 3152 3152 3152 3153 3153 3153 3154 3154 3154 3154 3154 3154 3154 3154 3154 3154 3155 3155 3156 3157 3157 3158 3158 3159 3159 3159 3159 3159 3159 3158 3157 3156 3155 3155 3155 3154 3154 3153
3137 3137 3136 3136 3137 3137 3136 3137 3139 3139 3140 3141 3143 3143 3143 3142 3142 3144 3144 3144 3144 3145 3146 3144 3143 3143 3144 3144 3144 3145 3146 3147 3147 3147 3147 3147 3148 3148 3148 3149 3149 3150 3150 3151 3151 3151 3151 3151 3152 3152 3153 3153 3153 3154 3154 3154 3154 3154 3154 3154 3153 3153 3153 3154 3154 3154 3154 3155 3155 3156 3156 3157 3157 3157 3157 3157 3157 3156 3156 3155 3155 3154 3154 3154 3154 3154
3135 3135 3135 3135 3136 3137 3136 3137 3138 3140 3141 3141 3142 3142 3142 3141 3142 3143 3144 3144 3144 3144 3145 3145 3144 3143 3144 3144 3144 3145 3145 3146 3146 3146 3146 3146 3147 3147 3148 3148 3149 3149 3150 3150 3150 3151 3151 3151 3152 3152 3153 3153 3154 3154 3154 3154 3154 3154 3153 3153 3153 3153 3153 3153 3153 3153 3153 3154 3154 3154 3154 3155 3155 3155 3155 3155 3155 3155 3154 3154 3153 3153 3153 3153 3153 3153
3133 3134 3135 3135 3137 3137 3136 3136 3138 3139 3140 3140 3140 3140 3141 3141 3142 3143 3143 3143 3143 3143 3144 3144 3144 3144 3144 3144 3145 3145 3145 3145 3146 3146 3146 3146 3146 3147 3147 3148 3148 3149 3149 3150 3150 3150 3151 3151 3152 3153 3153 3154 3154 3154 3154 3154 3153 3153 3153 3153 3153 3153 3153 3153 3153 3153 3153 3153 3153 3153 3153 3153 3153 3153 3153 3153 3153 3152 3152 3152 3151 3151 3151 3151 3151 3151
3132 3133 3134 3135 3136 3136 3136 3136 3137 3138 3139 3139 3139 3139 3140 3140 3141 3141 3142 3142 3142 3142 3143 3143 3143 3143 3144 3144 3144 3145 3145 3145 3145 3146 3146 3146 3146 3147 3147 3147 3148 3149 3149 3150 3150 3151 3151 3152 3152 3153 3153 3154 3154 3154 3154 3154 3153 3153 3153 3153 3153 3153 3153 3153 3152 3153 3152 3152 3152 3152 3152 3152 3152 3152 3152 3152 3151 3151 3151 3150 3150 3149 3149 3149 3149 3149
3131 3131 3133 3134 3134 3134 3135 3135 3136 3137 3138 3138 3138 3138 3138 3139 3139 3140 3140 3140 3140 3141 3141 3142 3142 3143 3143 3144 3144 3144 3145 3145 3145 3146 3146 3146 3147 3147 3147 3148 3148 3149 3149 3150 3150 3151 3151 3152 3152 3153 3153 3154 3154 3154 3154 3153 3153 3153 3153 3153 3153 3153 3153 3152 3152 3152 3152 3152 3152 3152 3152 3151 3151 3151 3151 3151 3151 3150 3150 3150 3149 3149 3149 3148 3148 3148
3129 3130 3131 3133 3133 3133 3133 3134 3134 3135 3136 3136 3137 3137 3137 3137 3138 3138 3139 3139 3139 3140 3140 3141 3142 3142 3142 3143 3144 3144 3144 3145 3145 3145 3146 3146 3147 3148 3148 3148 3149 3149 3150 3150 3150 3151 3151 3152 3152 3153 3153 3154 3154 3153 3153 3153 3153 3153 3153 3153 3153 3153 3153 3152 3152 3152 3152 3152 3152 3151 3151 3151 3151 3150 3150 3150 3150 3150 3149 3149 3149 3149 3149 3149 3148 3148
3128 3129 3130 3131 3131 3131 3131 3131 3132 3134 3135 3135 3135 3135 3135 3136 3136 3137 3138 3138 3138 3139 3139 3140 3141 3141 3141 3142 3143 3144 3144 3145 3145 3146 3146 3146 3147 3148 3148 3148 3149 3149 3150 3150 3151 3151 3152 3152 3152 3153 3153 3153 3153 3153 3153 3153 3153 3153 3153 3153 3153 3153 3152 3152 3152 3152 3152 3151 3151 3151 3151 3151 3150 3150 3150 3150 3149 3149 3149 3148 3148 3148 3148 3148 3148 3147
3127 3128 3129 3129 3129 3130 3130 3129 3130 3133 3134 3134 3134 3134 3134 3134 3135 3136 3136 3137 3137 3138 3138 3139 3140 3140 3141 3141 3142 3143 3144 3144 3145 3145 3146 3146 3147 3148 3148 3149 3149 3150 3150 3150 3151 3151 3151 3152 3153 3153 3153 3153 3153 3153 3153 3153 3152 3152 3152 3152 3152 3152 3152 3152 3152 3152 3152 3152 3151 3151 3151 3150 3150 3150 3150 3149 3149 3149 3148 3148 3148 3147 3147 3147 3146 3146